Theta_e
320 321 321 322 316 313 312 311 311 312 313 313 313 316 317 318 318 318 320 320 322 325 325 321 324 326 327 326 328 326 325 327 326 328 327 327 329 327 326 323 323 324 327 323 321 323 323 319 321 324 325 322 327 326
319 321 321 321 316 313 312 310 310 310 313 313 313 314 317 317 318 318 319 319 319 323 325 322 322 323 324 325 327 323 324 327 326 327 325 324 326 323 323 328 317 327 323 325 324 324 319 320 321 321 321 326 326 327
319 320 321 321 316 313 311 308 308 308 309 309 311 313 316 317 318 318 319 318 320 323 325 324 325 322 321 322 323 326 325 323 323 316 322 322 326 320 324 322 323 320 316 323 324 324 324 324 324 324 323 324 324 324
320 320 321 321 317 313 311 307 308 307 307 308 309 313 315 316 318 318 318 317 317 320 328 326 322 324 320 319 319 318 319 315 315 317 319 320 323 315 320 320 321 320 320 323 323 322 323 324 325 325 324 323 323 321
320 320 320 321 317 312 309 307 307 307 307 307 308 313 314 315 318 318 320 319 317 320 325 326 322 321 319 318 316 315 317 319 318 321 323 323 317 318 314 316 321 320 324 323 321 326 325 325 322 324 325 323 322 321
319 320 320 320 317 313 308 307 307 307 306 307 309 313 314 315 318 320 325 320 320 318 322 328 323 324 320 319 318 319 318 318 318 322 320 317 315 319 322 322 322 321 320 320 325 321 323 321 323 321 324 323 321 319
318 320 320 320 316 311 307 307 307 306 307 308 309 312 314 316 318 320 323 321 320 318 324 330 327 321 318 319 319 320 318 318 321 320 322 320 320 318 321 323 323 321 322 321 319 321 323 322 323 322 322 321 318 318
317 319 320 320 315 309 307 307 306 306 308 309 311 313 316 318 318 319 319 319 317 319 322 329 328 324 318 324 325 317 323 321 320 320 318 321 320 320 324 324 320 322 323 323 322 321 321 322 322 323 321 320 320 320
316 319 319 319 313 308 307 307 306 307 309 311 314 317 318 318 319 320 318 318 316 318 328 327 329 327 319 322 321 321 319 325 318 324 321 320 322 325 325 326 323 324 324 323 323 321 321 321 322 323 322 321 322 322
316 318 319 316 310 308 307 306 306 309 311 316 317 319 322 319 319 318 317 320 320 319 321 327 324 328 321 322 324 324 321 325 324 323 320 323 324 324 323 322 322 322 322 322 323 324 323 322 323 323 323 322 321 322
315 316 316 313 308 307 306 306 308 312 316 317 319 323 319 318 317 320 324 325 321 324 323 326 326 327 320 325 326 322 324 324 327 325 326 326 327 326 323 323 322 321 321 321 321 321 320 320 320 322 322 321 321 321
315 314 315 309 308 307 305 306 310 314 316 317 319 318 318 319 320 324 324 322 325 325 323 327 326 325 323 321 326 322 325 324 326 322 327 328 327 324 325 322 323 323 321 321 320 320 318 319 319 320 320 321 321 321
314 313 310 308 307 305 305 308 312 315 316 317 319 321 321 320 319 325 326 327 327 324 323 324 326 324 323 322 324 325 326 326 322 327 327 327 326 323 325 324 324 320 322 321 320 320 319 316 317 319 320 320 320 319
312 311 308 307 305 305 306 310 313 315 316 320 322 315 323 324 323 324 324 324 323 322 323 323 325 324 322 326 325 326 324 325 327 327 326 327 328 327 325 323 324 323 321 320 319 318 317 319 319 319 319 318 317 317
310 307 306 305 304 305 308 311 312 315 317 321 322 323 323 321 321 321 321 321 322 322 323 326 326 324 325 326 324 324 326 326 326 326 326 325 326 326 325 325 324 323 321 320 318 318 318 317 317 317 316 316 315 315
306 304 304 304 304 307 309 311 314 315 316 319 320 322 322 324 325 324 324 325 322 324 323 325 328 329 328 325 326 326 325 326 325 326 326 326 327 326 326 324 324 321 320 319 317 317 317 317 317 317 316 316 316 316
305 303 303 303 305 308 312 313 314 314 316 319 319 318 319 321 323 323 323 325 321 326 331 328 329 326 325 328 327 326 326 326 325 326 329 328 328 327 325 324 323 322 318 317 317 317 318 316 315 316 318 319 318 318
305 303 302 305 308 311 312 313 313 316 317 318 320 320 318 319 323 324 324 323 324 327 327 328 327 329 329 329 328 327 325 326 329 330 329 326 326 324 324 324 321 320 320 317 317 318 318 318 318 318 319 320 319 319
302 302 303 309 311 311 313 312 314 317 317 317 317 316 317 319 319 321 323 322 321 323 326 329 329 329 327 327 331 332 331 333 334 332 330 327 325 325 324 321 321 319 318 318 318 318 318 319 318 318 318 318 319 319
301 303 308 310 311 311 313 313 311 313 317 317 316 318 318 320 319 320 322 324 326 327 328 328 327 327 327 327 328 329 330 330 330 330 329 328 326 323 323 323 321 321 319 319 319 318 319 319 319 319 319 319 319 320
305 308 309 310 310 312 314 314 313 314 315 317 316 318 321 319 321 321 321 323 327 328 328 326 326 326 323 323 324 327 328 327 328 328 330 327 326 325 324 323 322 320 320 321 321 321 318 319 320 319 319 320 321 320
307 308 309 309 310 312 313 313 317 317 317 319 320 320 322 323 325 324 322 323 324 323 326 326 326 326 326 325 324 324 327 327 327 325 322 324 328 327 326 325 322 321 320 320 320 320 320 319 318 319 320 321 321 320
308 308 309 309 312 310 310 311 317 320 323 323 323 326 327 326 324 320 327 325 325 324 325 325 326 326 327 326 325 325 324 325 326 327 327 326 326 325 325 325 324 324 323 321 320 319 319 319 320 320 322 322 322 321
309 311 312 312 312 312 312 316 316 319 322 323 325 327 328 329 325 327 326 326 325 324 323 325 324 325 323 324 325 326 326 325 325 327 327 326 327 327 325 325 325 325 324 324 324 324 325 326 325 324 323 322 322 321
309 311 310 308 313 314 316 318 319 321 322 322 324 325 327 327 331 331 331 329 326 327 326 325 323 323 324 325 326 325 325 325 326 328 328 326 327 325 325 325 324 324 324 324 325 327 327 327 326 325 324 322 321 321
311 312 312 314 315 316 316 318 319 320 321 322 323 324 326 330 331 329 330 329 331 329 329 329 326 325 326 325 326 327 327 324 325 327 328 326 326 327 327 327 327 326 326 326 327 328 328 327 326 325 324 323 321 318
312 314 313 310 313 314 316 316 316 320 322 323 323 327 329 331 330 330 330 329 330 328 325 324 326 326 329 329 328 326 325 324 325 327 326 325 325 325 326 326 326 326 327 327 327 327 326 325 324 323 323 323 322 321
312 313 317 315 315 315 317 318 320 322 321 323 326 329 328 329 331 331 327 324 324 322 324 325 325 325 327 328 327 327 326 325 324 325 326 327 326 325 325 325 326 325 325 326 327 326 326 326 324 323 322 322 322 322
312 312 315 316 316 318 318 318 319 320 323 327 326 326 327 328 326 325 323 322 321 322 324 326 327 325 327 327 326 327 326 326 327 330 330 331 331 329 327 327 328 328 328 328 327 326 326 325 324 324 324 323 321 320
312 311 314 315 317 320 320 319 319 319 322 324 325 323 323 323 321 320 321 321 322 323 324 324 325 325 328 330 331 328 327 327 328 329 331 331 330 329 328 328 328 328 327 326 326 325 323 322 321 320 319 319 319 318
312 313 314 315 318 320 319 319 318 319 320 321 321 321 321 321 321 321 321 322 322 322 323 324 324 324 326 327 328 329 329 327 327 328 328 328 327 326 326 325 324 321 320 320 321 321 320 319 319 318 318 318 318 317
313 315 317 321 320 318 317 318 319 319 319 319 319 320 321 323 323 323 321 323 324 324 323 322 323 325 326 326 326 325 324 324 325 327 327 326 327 326 326 324 321 320 319 318 318 318 318 318 318 318 318 317 317 316
315 316 316 317 320 320 321 321 322 323 323 324 323 321 321 321 323 323 325 327 326 326 325 323 322 323 325 325 325 325 323 324 324 325 325 325 325 323 320 319 318 318 317 317 317 317 317 316 316 316 315 315 315 315
Wind_Speed
20 18 18 17 14 13 12 12 13 12 11 12 11 11 10 11 11 9 1 7 3 1 5 2 2 3 3 3 4 5 2 2 3 5 2 2 1 2 2 1 1 3 4 2 2 2 3 6 6 4 2 2 12 13
21 20 18 17 15 13 11 12 12 12 10 12 11 9 8 9 9 8 0 6 7 3 4 6 12 12 7 4 3 3 2 2 2 4 1 2 2 2 3 4 1 3 1 2 4 1 1 4 2 2 2 2 5 11
23 21 19 17 16 13 11 12 12 10 9 9 8 7 7 7 8 7 3 9 3 2 4 3 1 3 3 4 5 2 1 1 3 1 2 2 2 2 3 3 3 2 2 1 3 3 2 3 2 2 4 2 5 8
24 22 20 18 16 13 12 11 11 10 9 7 7 7 6 6 6 6 3 7 2 1 2 1 6 3 5 3 4 6 2 3 5 2 2 2 1 2 2 2 1 1 6 4 1 2 4 7 8 5 6 4 7 8
26 23 20 20 16 13 12 10 9 8 8 6 6 7 6 6 5 7 2 2 6 2 2 4 11 1 5 3 3 4 5 3 2 2 1 2 2 3 1 1 3 4 4 3 2 5 1 2 2 7 9 9 8 10
26 25 22 20 16 13 12 9 9 8 8 6 6 6 6 5 4 1 2 4 1 4 2 2 3 3 4 5 7 6 4 3 2 1 2 2 1 1 3 2 1 5 5 2 1 0 3 1 2 2 9 8 10 11
26 25 24 21 16 14 12 9 8 7 7 5 5 5 5 4 4 2 1 1 4 4 1 3 2 1 3 2 2 1 3 2 2 2 1 1 2 1 2 4 4 6 5 5 4 5 2 3 1 2 3 7 11 9
26 26 25 22 17 14 11 9 7 6 5 4 4 3 4 5 4 2 2 0 1 1 1 2 2 2 4 1 1 3 1 1 4 2 1 1 3 1 3 6 3 4 6 5 8 4 3 4 3 3 4 7 8 8
26 26 26 23 18 15 12 9 6 4 3 4 2 2 2 2 1 0 2 1 1 1 1 1 2 1 2 1 1 2 2 2 1 1 1 2 2 4 5 7 7 8 7 6 7 7 5 2 2 3 4 6 7 7
27 27 28 23 19 16 12 8 5 4 4 3 3 2 1 2 1 1 1 1 2 1 1 3 1 2 2 1 2 2 1 1 2 1 1 3 4 6 6 5 3 5 9 10 9 6 6 5 4 5 7 6 8 6
28 28 28 23 20 16 13 8 7 7 6 3 3 1 1 1 2 1 1 2 1 3 4 2 4 2 2 2 3 1 2 1 2 2 2 1 2 2 1 4 4 5 11 9 3 3 6 4 5 4 4 6 7 8
28 31 29 24 20 17 13 10 11 7 4 4 3 2 2 1 1 2 1 1 3 3 3 3 3 3 1 2 2 1 2 2 2 1 2 2 2 1 2 4 6 5 8 8 7 5 5 6 4 4 4 5 5 5
30 33 28 25 21 17 13 12 12 8 7 3 1 2 1 1 2 4 5 3 3 3 4 4 3 2 2 2 3 2 2 2 1 2 2 3 0 1 5 5 5 6 7 5 6 7 6 6 5 6 5 3 3 4
34 31 28 24 21 17 15 14 14 9 2 2 3 0 4 4 4 4 3 2 1 2 3 3 3 1 1 2 1 2 2 2 2 2 3 1 1 0 6 4 5 6 5 4 5 7 7 6 5 5 5 4 4 6
34 30 25 22 20 17 16 17 14 6 2 2 3 4 6 3 3 3 3 3 3 2 3 3 3 2 1 3 0 2 3 3 3 2 1 2 3 5 6 5 5 4 3 3 5 7 5 4 4 4 5 4 5 7
33 25 20 23 20 18 16 17 9 3 1 2 3 3 3 2 2 2 3 4 2 3 3 1 3 2 1 3 3 4 2 4 2 2 1 2 3 5 4 4 4 3 3 4 6 6 5 4 3 3 4 6 8 9
24 7 26 25 22 19 19 7 4 2 2 3 3 4 4 3 4 2 1 1 0 3 2 2 4 4 3 3 3 3 3 1 1 3 4 4 6 7 6 5 4 4 4 7 8 6 4 3 4 5 8 8 8 10
6 26 30 29 28 21 6 2 3 3 4 4 3 1 3 3 2 2 2 1 1 1 2 3 4 4 4 5 3 3 4 2 3 3 4 4 7 8 8 7 6 4 4 8 7 6 5 5 7 10 10 9 10 13
28 32 30 31 18 6 4 3 2 3 5 2 3 3 3 3 4 6 3 3 2 1 2 2 3 4 4 3 3 2 3 3 3 2 2 5 8 7 8 7 7 6 6 8 8 8 7 8 10 9 10 9 12 15
28 30 31 15 6 3 3 2 2 2 3 1 2 3 3 3 1 3 4 3 3 2 2 4 4 4 4 6 4 4 3 4 3 3 4 4 5 6 8 9 8 7 6 6 7 8 7 8 10 11 12 12 13 14
27 18 13 8 2 2 1 3 2 3 2 2 1 2 3 2 4 4 4 4 3 3 4 4 4 5 6 3 3 5 6 7 6 5 2 3 8 9 8 7 6 7 8 8 9 8 8 11 13 12 11 11 10 10
12 12 5 2 2 1 1 2 1 0 2 1 2 3 2 2 3 4 3 5 4 7 5 4 4 6 6 6 9 13 11 8 9 5 4 7 3 3 4 7 8 9 10 12 11 10 10 13 14 12 11 12 11 9
14 7 3 1 2 1 1 1 2 3 2 2 2 3 3 3 1 3 3 4 4 6 9 10 13 14 11 15 9 10 12 12 10 11 10 10 8 7 7 6 8 10 10 12 11 11 14 15 14 12 12 13 12 11
7 2 2 2 2 2 1 2 2 2 2 2 2 3 2 2 3 2 3 3 3 1 5 9 11 7 4 5 8 11 14 13 12 11 9 8 8 11 10 10 10 12 13 9 9 11 13 14 13 12 10 11 10 11
3 1 3 0 2 2 2 2 3 2 2 1 2 3 2 2 2 3 3 2 1 3 3 4 5 7 8 8 7 12 10 13 12 9 12 13 10 4 6 8 11 14 11 11 13 14 14 12 12 11 11 10 9 10
2 3 4 5 3 3 4 3 4 4 2 2 4 2 1 2 3 3 1 4 2 3 3 4 3 3 5 9 7 5 8 11 10 9 11 12 12 11 8 5 5 9 14 16 14 12 13 12 11 11 10 10 11 11
1 2 3 1 1 1 2 3 2 2 4 4 2 2 2 3 2 1 2 2 2 4 8 7 4 5 4 4 6 8 7 9 11 8 4 5 10 13 14 12 12 11 7 7 8 10 12 12 11 11 11 11 11 11
1 1 2 4 3 2 2 2 3 4 4 3 2 4 2 2 1 0 3 7 8 15 13 8 7 9 8 6 4 3 6 7 7 5 2 3 5 9 14 15 15 15 15 13 13 13 14 14 13 12 13 15 18 16
2 1 1 3 3 3 4 3 3 2 2 1 2 2 2 1 1 2 10 15 15 13 10 6 0 2 3 3 5 8 6 10 10 8 10 7 5 10 13 13 12 13 14 14 15 16 15 14 15 15 17 17 18 16
2 3 2 2 3 4 4 6 3 3 2 2 1 2 3 3 7 16 17 19 14 10 9 8 5 2 2 2 4 7 11 12 12 9 6 7 6 5 7 10 12 11 10 11 11 10 12 10 10 10 10 12 13 15
2 3 3 3 3 2 3 3 6 4 3 4 5 6 7 4 8 11 9 10 10 9 7 7 6 4 5 5 5 5 5 10 12 12 10 6 1 4 4 5 5 5 4 2 2 3 5 8 10 12 14 15 16 14
4 6 3 2 2 2 4 3 3 3 5 5 6 5 3 3 3 1 10 10 7 6 7 8 7 6 4 6 5 5 5 2 8 14 13 11 8 6 4 5 3 4 4 3 5 7 8 9 10 11 10 11 11 9
4 3 3 3 3 3 2 2 3 3 4 3 4 5 6 4 2 2 7 12 11 9 10 10 7 7 6 6 6 6 5 6 7 9 9 9 7 4 4 6 5 4 5 6 6 6 7 7 8 9 9 8 8 8
Wind_Direction
257 266 280 286 288 288 292 293 300 296 298 310 326 335 341 348 354 4 97 27 17 296 284 246 295 328 336 8 5 353 262 40 66 63 76 91 101 94 102 99 221 187 162 156 150 177 216 155 131 204 63 123 184 188
250 258 269 277 279 282 291 295 296 302 289 295 306 315 331 339 348 358 3 350 333 224 294 281 275 271 256 307 316 7 344 296 69 95 116 126 135 172 170 177 172 202 255 193 223 149 18 188 58 95 194 158 184 191
244 250 260 268 270 274 282 290 297 294 294 294 291 290 317 331 340 0 346 359 350 298 271 288 15 306 336 228 247 311 337 39 79 9 129 108 140 147 182 180 131 162 192 161 208 163 179 199 205 233 197 221 187 192
236 241 250 258 262 266 272 282 290 293 294 289 284 273 296 317 321 342 354 5 43 344 298 338 345 336 337 338 218 211 168 114 88 43 84 94 134 206 192 90 200 91 162 141 187 253 281 245 229 208 190 178 167 166
233 236 240 249 254 257 263 273 281 287 294 284 274 260 288 302 308 318 269 76 39 338 313 301 314 3 20 39 87 115 126 99 78 98 92 114 125 178 112 210 177 188 157 206 269 179 207 101 6 207 198 196 183 172
231 230 235 241 243 246 251 260 269 281 291 278 260 255 282 294 304 306 209 225 6 12 297 294 350 300 359 68 90 79 84 89 109 98 101 127 86 272 175 206 183 190 196 194 117 340 198 5 355 209 215 194 185 190
232 224 229 233 231 234 240 247 263 278 283 257 248 253 277 277 279 234 40 95 291 324 270 295 289 66 326 31 71 60 45 71 34 115 104 107 123 206 188 198 177 198 202 189 184 154 156 210 77 115 184 187 186 196
229 219 222 226 219 224 226 236 251 275 260 240 228 255 273 272 275 270 187 132 115 49 272 285 280 272 2 111 147 2 68 57 35 66 141 188 153 230 234 222 185 172 164 174 185 200 97 109 132 133 151 166 186 201
223 214 215 216 207 213 215 227 241 258 223 209 225 244 226 204 222 133 158 266 243 243 267 208 270 213 2 86 67 121 9 171 53 231 162 232 175 221 224 202 190 186 184 170 157 171 162 193 137 156 191 201 219 216
217 210 209 202 199 201 208 214 229 194 180 170 156 192 178 162 154 193 329 210 174 187 225 246 168 244 234 175 106 157 23 95 226 93 213 232 245 254 243 214 167 187 181 154 145 176 196 197 184 198 219 227 225 225
210 205 199 190 192 194 198 197 184 160 157 162 190 176 140 142 148 91 234 234 163 228 191 231 212 241 164 205 133 335 127 123 234 121 269 233 261 251 306 214 209 180 180 191 186 146 178 164 183 195 213 214 213 220
201 194 186 182 184 191 187 183 172 168 188 178 156 125 94 110 75 215 238 239 220 238 194 201 181 203 172 270 150 184 151 190 232 103 248 244 250 261 184 149 159 175 182 193 208 207 204 201 177 169 182 186 207 225
192 183 176 176 182 181 179 172 167 162 139 118 123 113 78 142 121 202 194 202 225 200 197 184 165 166 151 209 95 150 172 196 149 220 251 248 338 237 177 168 168 159 161 177 203 210 196 182 182 184 191 186 202 246
180 172 173 172 174 172 169 166 160 158 140 189 158 240 217 188 232 203 207 209 233 220 174 175 124 161 236 150 98 199 92 196 217 229 238 264 305 290 166 166 164 169 189 179 163 166 173 178 175 186 207 229 240 262
166 165 165 167 168 164 161 163 163 157 170 186 187 216 221 246 263 252 253 266 215 225 160 144 114 184 121 107 10 123 178 226 227 226 239 324 324 174 173 179 178 167 168 172 174 179 178 182 204 211 217 225 253 257
156 151 167 165 160 156 153 152 151 151 150 220 233 246 216 253 247 225 233 257 221 183 161 183 135 118 135 123 178 201 210 222 219 211 193 324 189 188 190 184 181 152 183 178 180 170 173 174 181 198 209 231 243 247
148 133 166 159 150 148 145 136 151 173 199 218 232 235 257 279 260 277 291 321 33 191 192 158 158 176 125 186 201 196 218 239 225 260 273 245 206 189 183 181 188 188 169 166 163 159 166 164 196 232 249 251 247 255
121 149 154 149 146 140 137 120 148 182 222 221 237 203 206 239 255 245 232 206 222 223 169 196 128 180 200 193 199 208 226 250 251 269 283 216 198 192 189 178 173 189 207 185 179 173 193 205 232 248 256 278 286 281
145 149 149 148 143 124 135 163 207 222 221 232 244 237 253 255 235 258 261 258 267 286 183 188 197 205 206 203 237 235 215 214 211 224 260 224 205 195 188 181 166 178 198 183 186 214 228 238 255 273 281 280 279 290
143 144 148 144 121 118 115 126 170 205 219 210 229 226 235 234 252 232 230 183 180 192 199 210 213 203 217 224 203 231 222 196 202 253 254 207 212 191 199 195 186 188 209 225 225 236 248 268 267 267 273 277 281 289
132 137 131 132 111 100 120 145 174 219 220 232 213 220 246 215 231 224 227 173 190 220 228 217 217 222 213 227 226 218 212 186 210 226 256 217 197 205 201 204 180 199 212 227 233 235 235 252 265 271 279 286 283 270
130 123 122 91 100 125 161 178 273 161 205 255 230 220 245 233 218 206 156 194 226 226 217 218 223 217 216 224 226 219 230 219 236 227 180 168 176 198 220 213 193 213 221 232 235 243 253 262 269 275 282 286 296 265
129 130 108 105 109 107 213 163 224 204 228 217 204 215 216 225 202 150 235 225 242 214 212 216 228 225 225 236 231 233 228 221 234 239 231 221 220 219 225 219 216 229 233 236 236 246 259 270 277 279 288 287 280 266
119 114 134 132 150 183 181 207 216 246 237 233 243 265 204 211 145 224 251 249 242 230 215 228 223 229 232 238 237 241 232 216 232 238 225 201 214 221 217 233 239 236 238 244 242 252 262 271 278 283 283 283 276 267
90 69 108 10 204 176 194 210 191 220 237 206 262 258 212 179 235 228 245 269 311 311 301 249 225 225 234 244 245 242 227 214 218 226 226 215 226 187 225 238 239 231 233 236 244 252 264 269 272 279 278 275 272 276
100 170 180 179 160 200 191 186 201 209 207 235 236 259 212 231 241 237 326 338 315 322 336 340 273 218 233 231 246 235 232 213 205 220 235 214 211 219 229 225 229 238 226 231 243 252 268 276 288 283 273 273 278 277
121 186 192 230 256 195 237 242 260 245 204 220 232 226 224 237 206 106 249 237 279 316 312 304 277 244 264 301 269 254 226 197 194 216 211 227 222 223 219 216 220 232 215 214 234 246 266 276 288 287 275 278 270 259
244 276 223 152 204 225 280 270 231 219 218 207 213 212 235 242 149 120 232 299 305 325 320 299 280 258 259 267 259 173 172 182 180 184 199 229 236 228 220 224 239 246 250 252 255 258 262 269 275 277 276 280 283 281
239 230 233 224 214 217 221 242 239 233 273 313 339 308 336 327 141 246 289 295 306 308 298 298 290 233 250 237 215 206 184 177 176 189 210 220 216 222 221 224 234 243 251 256 264 267 266 269 270 276 279 282 287 294
245 187 224 239 217 229 220 204 234 240 244 265 290 288 268 255 265 293 296 293 290 280 276 280 282 267 261 215 192 201 211 208 207 209 203 210 223 230 212 221 235 245 253 265 276 286 295 308 305 299 295 304 304 301
145 181 222 239 272 257 244 249 245 254 246 248 241 255 272 292 297 291 289 295 288 279 271 280 283 245 240 223 221 221 207 216 214 211 211 217 181 185 217 244 244 242 241 264 297 334 337 327 323 323 319 319 321 323
190 213 233 254 256 277 289 237 248 246 247 240 251 222 207 211 255 289 3 357 348 336 316 304 271 280 260 237 235 241 239 233 198 203 207 217 224 227 256 257 208 133 113 67 39 27 17 12 11 9 5 6 3 2
208 218 219 247 251 261 225 248 243 254 220 228 227 210 201 196 229 38 3 6 352 329 325 307 289 259 259 276 261 239 225 194 168 168 175 184 194 192 152 139 129 107 82 75 61 40 30 23 18 16 13 9 11 13